| time (UTC) | temp C | wind direction | speed KPH | gust KPH | rain 1hr cm | rain 24hr cm | rain mn cm | humidity % | barometer mb |
| 20260508125027 | 15 | 175 | 8.0 | 9.7 | 0.00 | 1.07 | 1.07 | 94 | 1014.9 |
| 20260508124527 | 15 | 161 | 6.4 | 14.5 | 0.13 | 1.07 | 1.07 | 94 | 1014.8 |
| 20260508124027 | 15 | 175 | 8.0 | 17.7 | 0.25 | 1.07 | 1.07 | 94 | 1014.6 |
| 20260508123026 | 15 | 138 | 14.5 | 17.7 | 0.53 | 1.07 | 1.07 | 95 | 1014.4 |
| 20260508122526 | 15 | 127 | 16.1 | 17.7 | 0.76 | 1.07 | 1.07 | 95 | 1014.4 |
| 20260508122027 | 15 | 133 | 14.5 | 16.1 | 0.89 | 1.07 | 1.07 | 95 | 1014.5 |
| 20260508120527 | 15 | 0 | 0.0 | 12.9 | 0.91 | 1.07 | 1.07 | 95 | 1014.5 |
| 20260508120027 | 15 | 0 | 0.0 | 19.3 | 0.91 | 1.07 | 1.07 | 96 | 1014.6 |
| 20260508115527 | 15 | 165 | 8.0 | 19.3 | 0.91 | 1.07 | 1.07 | 97 | 1014.5 |
| 20260508115026 | 15 | 144 | 12.9 | 17.7 | 0.91 | 1.07 | 1.07 | 97 | 1014.4 |
| 20260508114027 | 15 | 157 | 9.7 | 17.7 | 0.66 | 0.81 | 0.81 | 96 | 1014.7 |
| 20260508113527 | 15 | 225 | 12.9 | 19.3 | 0.38 | 0.53 | 0.53 | 95 | 1015.2 |
| 20260508113027 | 15 | 189 | 11.3 | 19.3 | 0.38 | 0.53 | 0.53 | 95 | 1014.7 |
| 20260508112527 | 15 | 194 | 19.3 | 19.3 | 0.15 | 0.30 | 0.30 | 93 | 1014.5 |
| 20260508112026 | 15 | 210 | 14.5 | 17.7 | 0.03 | 0.18 | 0.18 | 91 | 1014.5 |
| 20260508111527 | 15 | 168 | 12.9 | 17.7 | 0.00 | 0.15 | 0.15 | 89 | 1014.4 |
| 20260508111027 | 15 | 221 | 14.5 | 17.7 | 0.00 | 0.15 | 0.15 | 89 | 1014.9 |
| 20260508105026 | 15 | 187 | 6.4 | 14.5 | 0.00 | 0.15 | 0.15 | 89 | 1014.1 |
| 20260508104027 | 15 | 140 | 11.3 | 17.7 | 0.15 | 0.15 | 0.15 | 89 | 1013.7 |
| 20260508103527 | 15 | 127 | 6.4 | 11.3 | 0.15 | 0.15 | 0.15 | 91 | 1014.0 |
| 20260508103027 | 15 | 182 | 8.0 | 11.3 | 0.15 | 0.15 | 0.15 | 91 | 1014.2 |
| 20260508102527 | 15 | 194 | 6.4 | 11.3 | 0.15 | 0.15 | 0.15 | 90 | 1014.1 |
| 20260508102026 | 15 | 196 | 6.4 | 11.3 | 0.15 | 0.15 | 0.15 | 90 | 1014.1 |
| 20260508101527 | 15 | 167 | 6.4 | 12.9 | 0.15 | 0.15 | 0.15 | 90 | 1014.0 |
| 20260508101026 | 15 | 138 | 8.0 | 12.9 | 0.15 | 0.15 | 0.15 | 90 | 1013.9 |
| 20260508100527 | 15 | 126 | 8.0 | 11.3 | 0.15 | 0.15 | 0.15 | 90 | 1014.1 |
| 20260508100027 | 15 | 203 | 9.7 | 12.9 | 0.15 | 0.15 | 0.15 | 89 | 1014.4 |
| 20260508095527 | 15 | 183 | 8.0 | 12.9 | 0.15 | 0.15 | 0.15 | 89 | 1014.2 |
| 20260508094527 | 15 | 235 | 11.3 | 11.3 | 0.00 | 0.00 | 0.00 | 84 | 1014.6 |
| 20260508094027 | 15 | 187 | 3.2 | 4.8 | 0.00 | 0.00 | 0.00 | 84 | 1014.3 |
| 20260508093527 | 15 | 91 | 3.2 | 4.8 | 0.00 | 0.00 | 0.00 | 83 | 1014.1 |
| 20260508093027 | 15 | 144 | 3.2 | 8.0 | 0.00 | 0.00 | 0.00 | 83 | 1014.1 |
| 20260508092527 | 15 | 201 | 1.6 | 8.0 | 0.00 | 0.00 | 0.00 | 83 | 1014.2 |
| 20260508092026 | 15 | 138 | 8.0 | 8.0 | 0.00 | 0.00 | 0.00 | 83 | 1014.1 |
| 20260508091527 | 15 | 177 | 6.4 | 11.3 | 0.00 | 0.00 | 0.00 | 83 | 1014.1 |
| 20260508091027 | 15 | 208 | 8.0 | 11.3 | 0.00 | 0.00 | 0.00 | 83 | 1014.1 |
| 20260508090028 | 15 | 190 | 6.4 | 16.1 | 0.00 | 0.00 | 0.00 | 83 | 1013.9 |
| 20260508085027 | 15 | 152 | 8.0 | 14.5 | 0.00 | 0.00 | 0.00 | 83 | 1013.8 |
| 20260508084526 | 15 | 139 | 8.0 | 9.7 | 0.00 | 0.00 | 0.00 | 83 | 1013.9 |
| 20260508083027 | 16 | 169 | 8.0 | 11.3 | 0.00 | 0.00 | 0.00 | 80 | 1014.2 |
| 20260508082527 | 16 | 170 | 6.4 | 9.7 | 0.00 | 0.00 | 0.00 | 78 | 1014.3 |
| 20260508082027 | 16 | 135 | 6.4 | 9.7 | 0.00 | 0.00 | 0.00 | 77 | 1014.3 |
| 20260508081527 | 16 | 148 | 8.0 | 9.7 | 0.00 | 0.00 | 0.00 | 77 | 1014.4 |
| 20260508081026 | 16 | 157 | 8.0 | 8.0 | 0.00 | 0.00 | 0.00 | 78 | 1014.5 |
| 20260508080527 | 16 | 143 | 8.0 | 8.0 | 0.00 | 0.00 | 0.00 | 79 | 1014.4 |
| 20260508080027 | 15 | 161 | 6.4 | 9.7 | 0.00 | 0.00 | 0.00 | 79 | 1014.5 |
| 20260508075527 | 15 | 158 | 6.4 | 9.7 | 0.00 | 0.00 | 0.00 | 81 | 1014.7 |
| 20260508074527 | 15 | 228 | 8.0 | 9.7 | 0.00 | 0.00 | 0.00 | 79 | 1014.9 |
| 20260508073527 | 15 | 196 | 6.4 | 11.3 | 0.00 | 0.00 | 0.00 | 80 | 1014.9 |
| 20260508073027 | 15 | 182 | 6.4 | 11.3 | 0.00 | 0.00 | 0.00 | 79 | 1015.1 |
| 20260508072527 | 15 | 203 | 9.7 | 12.9 | 0.00 | 0.00 | 0.00 | 81 | 1015.4 |
| 20260508072027 | 15 | 205 | 8.0 | 14.5 | 0.00 | 0.00 | 0.00 | 83 | 1015.5 |
| 20260508071527 | 15 | 222 | 11.3 | 14.5 | 0.00 | 0.00 | 0.00 | 85 | 1015.7 |
| 20260508071026 | 15 | 230 | 14.5 | 14.5 | 0.00 | 0.00 | 0.00 | 84 | 1015.7 |
| 20260508070527 | 15 | 244 | 11.3 | 12.9 | 0.00 | 0.00 | 0.00 | 83 | 1015.6 |
| 20260508070026 | 15 | 232 | 4.8 | 6.4 | 0.00 | 0.00 | 0.00 | 82 | 1015.4 |
| 20260508065527 | 15 | 235 | 6.4 | 9.7 | 0.00 | 0.00 | 0.00 | 82 | 1015.5 |
| 20260508065027 | 15 | 197 | 3.2 | 11.3 | 0.00 | 0.00 | 0.00 | 82 | 1015.3 |
| 20260508064527 | 15 | 219 | 8.0 | 11.3 | 0.00 | 0.00 | 0.00 | 81 | 1015.7 |
| 20260508064027 | 15 | 220 | 9.7 | 9.7 | 0.00 | 0.00 | 0.00 | 81 | 1015.8 |
| 20260508063027 | 15 | 229 | 6.4 | 8.0 | 0.00 | 0.00 | 0.00 | 81 | 1015.8 |
| 20260508062527 | 15 | 230 | 8.0 | 8.0 | 0.00 | 0.00 | 0.00 | 80 | 1016.0 |
| 20260508062027 | 15 | 217 | 6.4 | 6.4 | 0.00 | 0.00 | 0.00 | 80 | 1015.9 |
| 20260508061527 | 15 | 199 | 3.2 | 9.7 | 0.00 | 0.00 | 0.00 | 80 | 1015.8 |
| 20260508061027 | 15 | 180 | 4.8 | 9.7 | 0.00 | 0.00 | 0.00 | 81 | 1015.9 |
| 20260508060527 | 15 | 146 | 8.0 | 9.7 | 0.00 | 0.00 | 0.00 | 81 | 1016.0 |
| 20260508060028 | 15 | 165 | 4.8 | 6.4 | 0.00 | 0.00 | 0.00 | 81 | 1016.1 |
| 20260508055027 | 15 | 166 | 1.6 | 3.2 | 0.00 | 0.00 | 0.00 | 81 | 1016.1 |
| 20260508054527 | 15 | 195 | 1.6 | 3.2 | 0.00 | 0.00 | 0.00 | 81 | 1016.1 |
| 20260508054027 | 15 | 122 | 3.2 | 4.8 | 0.00 | 0.00 | 0.00 | 81 | 1016.0 |
| 20260508053527 | 15 | 103 | 1.6 | 4.8 | 0.00 | 0.00 | 0.00 | 81 | 1016.0 |
| 20260508052527 | 16 | 136 | 4.8 | 4.8 | 0.00 | 0.00 | 0.00 | 77 | 1015.8 |
| 20260508052027 | 16 | 173 | 4.8 | 4.8 | 0.00 | 0.00 | 0.00 | 77 | 1015.8 |
| 20260508050527 | 16 | 236 | 6.4 | 6.4 | 0.00 | 0.00 | 0.00 | 77 | 1015.8 |
| 20260508045027 | 16 | 221 | 8.0 | 8.0 | 0.00 | 0.00 | 0.00 | 78 | 1016.0 |
| 20260508044527 | 16 | 220 | 8.0 | 8.0 | 0.00 | 0.00 | 0.00 | 78 | 1016.0 |
| 20260508044027 | 16 | 244 | 6.4 | 9.7 | 0.00 | 0.00 | 0.00 | 77 | 1016.1 |
| 20260508043027 | 16 | 233 | 8.0 | 9.7 | 0.00 | 0.00 | 0.00 | 75 | 1016.0 |
| 20260508042527 | 16 | 234 | 6.4 | 8.0 | 0.00 | 0.00 | 0.00 | 75 | 1015.8 |
| 20260508042027 | 16 | 217 | 6.4 | 8.0 | 0.00 | 0.00 | 0.00 | 75 | 1015.9 |
| 20260508041527 | 16 | 197 | 6.4 | 8.0 | 0.00 | 0.00 | 0.00 | 75 | 1015.8 |
| 20260508041027 | 16 | 216 | 6.4 | 8.0 | 0.00 | 0.00 | 0.00 | 75 | 1015.8 |
| 20260508040027 | 16 | 186 | 6.4 | 8.0 | 0.00 | 0.00 | 0.00 | 76 | 1016.0 |
| 20260508035527 | 16 | 202 | 4.8 | 8.0 | 0.00 | 0.00 | 0.00 | 75 | 1016.0 |
| 20260508035027 | 16 | 192 | 6.4 | 8.0 | 0.00 | 0.00 | 0.00 | 74 | 1015.8 |
| 20260508034527 | 16 | 203 | 8.0 | 8.0 | 0.00 | 0.00 | 0.00 | 74 | 1015.8 |
| 20260508034027 | 16 | 151 | 6.4 | 8.0 | 0.00 | 0.00 | 0.00 | 74 | 1015.7 |
| 20260508033027 | 16 | 168 | 6.4 | 8.0 | 0.00 | 0.00 | 0.00 | 73 | 1015.7 |
| 20260508032527 | 16 | 148 | 8.0 | 8.0 | 0.00 | 0.00 | 0.00 | 73 | 1015.6 |
| 20260508032027 | 17 | 162 | 6.4 | 9.7 | 0.00 | 0.00 | 0.00 | 72 | 1015.6 |
| 20260508031527 | 17 | 149 | 8.0 | 9.7 | 0.00 | 0.00 | 0.00 | 72 | 1015.7 |
| 20260508031027 | 17 | 134 | 9.7 | 9.7 | 0.00 | 0.00 | 0.00 | 72 | 1015.5 |
| 20260508030527 | 17 | 130 | 9.7 | 11.3 | 0.00 | 0.00 | 0.00 | 71 | 1015.6 |
| 20260508030027 | 17 | 138 | 8.0 | 11.3 | 0.00 | 0.00 | 0.00 | 70 | 1015.5 |
| 20260508025527 | 17 | 140 | 8.0 | 9.7 | 0.00 | 0.00 | 0.00 | 70 | 1015.3 |
| 20260508025028 | 17 | 142 | 4.8 | 9.7 | 0.00 | 0.00 | 0.00 | 70 | 1015.3 |
| 20260508024527 | 17 | 134 | 6.4 | 11.3 | 0.00 | 0.00 | 0.00 | 71 | 1015.3 |
| 20260508024027 | 17 | 0 | 0.0 | 11.3 | 0.00 | 0.00 | 0.00 | 71 | 1015.3 |
| 20260508023527 | 17 | 141 | 8.0 | 14.5 | 0.00 | 0.00 | 0.00 | 71 | 1015.1 |
| 20260508023027 | 17 | 128 | 11.3 | 16.1 | 0.00 | 0.00 | 0.00 | 71 | 1015.1 |
| 20260508022027 | 17 | 0 | 0.0 | 12.9 | 0.00 | 0.00 | 0.00 | 69 | 1015.1 |
| 20260508021527 | 17 | 0 | 0.0 | 17.7 | 0.00 | 0.00 | 0.00 | 69 | 1015.0 |
| 20260508021027 | 17 | 125 | 16.1 | 19.3 | 0.00 | 0.00 | 0.00 | 68 | 1015.0 |
| 20260508020527 | 18 | 114 | 17.7 | 19.3 | 0.00 | 0.00 | 0.00 | 67 | 1015.0 |
| 20260508020029 | 18 | 0 | 0.0 | 16.1 | 0.00 | 0.00 | 0.00 | 65 | 1015.0 |
| 20260508015527 | 18 | 104 | 14.5 | 16.1 | 0.00 | 0.00 | 0.00 | 63 | 1014.9 |
| 20260508015028 | 18 | 104 | 14.5 | 16.1 | 0.00 | 0.00 | 0.00 | 61 | 1014.8 |
| 20260508014527 | 19 | 0 | 0.0 | 9.7 | 0.00 | 0.00 | 0.00 | 58 | 1014.8 |
| 20260508014031 | 19 | 134 | 6.4 | 6.4 | 0.00 | 0.00 | 0.00 | 57 | 1014.8 |
| 20260508012027 | 19 | 125 | 6.4 | 8.0 | 0.00 | 0.00 | 0.00 | 57 | 1014.7 |
| 20260508011027 | 20 | 116 | 8.0 | 9.7 | 0.00 | 0.00 | 0.00 | 57 | 1014.7 |
| 20260508010527 | 20 | 110 | 6.4 | 9.7 | 0.00 | 0.00 | 0.00 | 57 | 1014.8 |
| 20260508010027 | 20 | 120 | 6.4 | 9.7 | 0.00 | 0.00 | 0.00 | 55 | 1014.7 |
| 20260508005527 | 20 | 119 | 6.4 | 9.7 | 0.00 | 0.00 | 0.00 | 55 | 1014.7 |
| 20260508005027 | 20 | 114 | 8.0 | 9.7 | 0.00 | 0.00 | 0.00 | 55 | 1014.6 |
| 20260508004527 | 20 | 110 | 8.0 | 11.3 | 0.00 | 0.00 | 0.00 | 55 | 1014.5 |
| 20260508003028 | 20 | 133 | 8.0 | 11.3 | 0.00 | 0.00 | 0.00 | 54 | 1014.8 |
| 20260508002527 | 20 | 119 | 8.0 | 11.3 | 0.00 | 0.00 | 0.00 | 53 | 1014.8 |
| 20260508001527 | 21 | 123 | 8.0 | 12.9 | 0.00 | 0.00 | 0.00 | 52 | 1014.9 |
| 20260508001028 | 21 | 185 | 11.3 | 14.5 | 0.00 | 0.00 | 0.00 | 50 | 1014.9 |
| 20260507235528 | 21 | 128 | 11.3 | 11.3 | 0.00 | 0.00 | 0.00 | 49 | 1014.9 |
| 20260507235027 | 21 | 145 | 9.7 | 11.3 | 0.00 | 0.00 | 0.00 | 48 | 1014.8 |
| 20260507234027 | 21 | 151 | 8.0 | 11.3 | 0.00 | 0.00 | 0.00 | 46 | 1014.9 |
| 20260507233528 | 21 | 157 | 6.4 | 14.5 | 0.00 | 0.00 | 0.00 | 47 | 1014.9 |
| 20260507233027 | 21 | 126 | 12.9 | 16.1 | 0.00 | 0.00 | 0.00 | 46 | 1015.0 |
| 20260507232027 | 22 | 142 | 16.1 | 17.7 | 0.00 | 0.00 | 0.00 | 46 | 1014.9 |
| 20260507231527 | 22 | 147 | 9.7 | 17.7 | 0.00 | 0.00 | 0.00 | 46 | 1014.9 |
| 20260507231027 | 22 | 209 | 9.7 | 17.7 | 0.00 | 0.00 | 0.00 | 45 | 1015.0 |
| 20260507230528 | 22 | 121 | 8.0 | 14.5 | 0.00 | 0.00 | 0.00 | 48 | 1015.1 |
| 20260507230027 | 21 | 101 | 8.0 | 19.3 | 0.00 | 0.00 | 0.00 | 48 | 1015.0 |
| 20260507225527 | 21 | 122 | 9.7 | 19.3 | 0.00 | 0.00 | 0.00 | 46 | 1015.0 |
| 20260507225027 | 22 | 134 | 9.7 | 16.1 | 0.00 | 0.00 | 0.00 | 45 | 1015.1 |
| 20260507224527 | 22 | 187 | 12.9 | 17.7 | 0.00 | 0.00 | 0.00 | 46 | 1015.2 |
| 20260507222027 | 21 | 130 | 12.9 | 20.9 | 0.00 | 0.00 | 0.00 | 47 | 1015.4 |
| 20260507221527 | 21 | 119 | 17.7 | 20.9 | 0.00 | 0.00 | 0.00 | 47 | 1015.4 |
| 20260507221027 | 21 | 114 | 9.7 | 22.5 | 0.00 | 0.00 | 0.00 | 49 | 1015.4 |
| 20260507220527 | 21 | 106 | 12.9 | 22.5 | 0.00 | 0.00 | 0.00 | 49 | 1015.3 |
| 20260507215028 | 21 | 103 | 17.7 | 25.7 | 0.00 | 0.00 | 0.00 | 47 | 1015.5 |
| 20260507214527 | 22 | 119 | 9.7 | 20.9 | 0.00 | 0.00 | 0.00 | 47 | 1015.5 |
| 20260507214028 | 22 | 87 | 12.9 | 20.9 | 0.00 | 0.00 | 0.00 | 48 | 1015.5 |
| 20260507213527 | 21 | 75 | 8.0 | 17.7 | 0.00 | 0.00 | 0.00 | 43 | 1015.6 |
| 20260507213027 | 22 | 40 | 9.7 | 17.7 | 0.00 | 0.00 | 0.00 | 43 | 1015.6 |
| 20260507212527 | 22 | 76 | 14.5 | 16.1 | 0.00 | 0.00 | 0.00 | 44 | 1015.6 |
| 20260507212027 | 22 | 80 | 14.5 | 16.1 | 0.00 | 0.00 | 0.00 | 43 | 1015.7 |
| 20260507211528 | 21 | 6 | 3.2 | 22.5 | 0.00 | 0.00 | 0.00 | 44 | 1015.8 |
| 20260507211027 | 21 | 31 | 11.3 | 22.5 | 0.00 | 0.00 | 0.00 | 45 | 1015.8 |
| 20260507210527 | 22 | 71 | 11.3 | 22.5 | 0.00 | 0.00 | 0.00 | 45 | 1016.0 |
| 20260507210027 | 21 | 96 | 11.3 | 24.1 | 0.00 | 0.00 | 0.00 | 44 | 1015.8 |
| 20260507205527 | 21 | 51 | 16.1 | 24.1 | 0.00 | 0.00 | 0.00 | 44 | 1015.8 |
| 20260507205027 | 21 | 11 | 6.4 | 17.7 | 0.00 | 0.00 | 0.00 | 43 | 1016.0 |
| 20260507204527 | 22 | 38 | 12.9 | 17.7 | 0.00 | 0.00 | 0.00 | 44 | 1015.8 |
| 20260507204027 | 22 | 10 | 9.7 | 14.5 | 0.00 | 0.00 | 0.00 | 45 | 1016.0 |
| 20260507203527 | 21 | 279 | 3.2 | 16.1 | 0.00 | 0.00 | 0.00 | 44 | 1016.1 |
| 20260507203029 | 21 | 320 | 11.3 | 19.3 | 0.00 | 0.00 | 0.00 | 43 | 1016.2 |
| 20260507202527 | 22 | 358 | 14.5 | 20.9 | 0.00 | 0.00 | 0.00 | 43 | 1016.1 |
| 20260507202027 | 21 | 345 | 14.5 | 22.5 | 0.00 | 0.00 | 0.00 | 45 | 1016.3 |
| 20260507201527 | 21 | 40 | 16.1 | 22.5 | 0.00 | 0.00 | 0.00 | 45 | 1016.4 |
| 20260507195527 | 21 | 25 | 3.2 | 8.0 | 0.00 | 0.00 | 0.00 | 45 | 1016.7 |
| 20260507195027 | 21 | 309 | 4.8 | 8.0 | 0.00 | 0.00 | 0.00 | 44 | 1016.7 |
| 20260507194527 | 21 | 272 | 8.0 | 25.7 | 0.00 | 0.00 | 0.00 | 45 | 1016.7 |
| 20260507194027 | 20 | 44 | 6.4 | 27.4 | 0.00 | 0.00 | 0.00 | 45 | 1016.9 |
| 20260507193527 | 21 | 52 | 22.5 | 27.4 | 0.00 | 0.00 | 0.00 | 47 | 1016.9 |
| 20260507193027 | 20 | 38 | 14.5 | 19.3 | 0.00 | 0.00 | 0.00 | 46 | 1017.1 |
| 20260507192527 | 20 | 25 | 6.4 | 19.3 | 0.00 | 0.00 | 0.00 | 45 | 1017.2 |
| 20260507192027 | 21 | 95 | 11.3 | 25.7 | 0.00 | 0.00 | 0.00 | 46 | 1017.2 |
| 20260507191527 | 20 | 56 | 19.3 | 25.7 | 0.00 | 0.00 | 0.00 | 44 | 1017.3 |
| 20260507191028 | 20 | 38 | 17.7 | 17.7 | 0.00 | 0.00 | 0.00 | 47 | 1017.3 |
| 20260507190527 | 20 | 8 | 4.8 | 17.7 | 0.00 | 0.00 | 0.00 | 46 | 1017.4 |
| 20260507190027 | 20 | 22 | 9.7 | 20.9 | 0.00 | 0.00 | 0.00 | 46 | 1017.4 |
| 20260507185528 | 20 | 345 | 11.3 | 24.1 | 0.00 | 0.00 | 0.00 | 47 | 1017.5 |
| 20260507185027 | 20 | 21 | 17.7 | 24.1 | 0.00 | 0.00 | 0.00 | 46 | 1017.4 |
| 20260507184528 | 20 | 34 | 24.1 | 30.6 | 0.00 | 0.00 | 0.00 | 48 | 1017.4 |
| 20260507184027 | 20 | 20 | 19.3 | 30.6 | 0.00 | 0.00 | 0.00 | 47 | 1017.5 |
| 20260507183527 | 20 | 57 | 25.7 | 32.2 | 0.00 | 0.00 | 0.00 | 48 | 1017.6 |
| 20260507183027 | 19 | 48 | 22.5 | 32.2 | 0.00 | 0.00 | 0.00 | 48 | 1017.6 |
| 20260507182027 | 19 | 15 | 17.7 | 27.4 | 0.00 | 0.00 | 0.00 | 49 | 1017.7 |
| 20260507181527 | 19 | 29 | 24.1 | 27.4 | 0.00 | 0.00 | 0.00 | 48 | 1017.8 |
| 20260507181027 | 19 | 40 | 24.1 | 24.1 | 0.00 | 0.00 | 0.00 | 49 | 1017.9 |
| 20260507180528 | 19 | 339 | 8.0 | 24.1 | 0.00 | 0.00 | 0.00 | 47 | 1018.3 |
| 20260507180027 | 19 | 20 | 9.7 | 24.1 | 0.00 | 0.00 | 0.00 | 46 | 1018.4 |
| 20260507175527 | 19 | 52 | 19.3 | 24.1 | 0.00 | 0.00 | 0.00 | 47 | 1018.4 |
| 20260507175027 | 18 | 59 | 4.8 | 22.5 | 0.00 | 0.00 | 0.00 | 51 | 1018.6 |
| 20260507174527 | 19 | 22 | 8.0 | 17.7 | 0.00 | 0.00 | 0.00 | 47 | 1018.7 |
| 20260507174027 | 19 | 356 | 8.0 | 22.5 | 0.00 | 0.00 | 0.00 | 48 | 1018.9 |
| 20260507173527 | 19 | 357 | 14.5 | 22.5 | 0.00 | 0.00 | 0.00 | 47 | 1018.9 |
| 20260507173027 | 18 | 338 | 8.0 | 20.9 | 0.00 | 0.00 | 0.00 | 49 | 1019.1 |
| 20260507172527 | 18 | 81 | 11.3 | 25.7 | 0.00 | 0.00 | 0.00 | 47 | 1019.2 |
| 20260507172027 | 19 | 62 | 20.9 | 32.2 | 0.00 | 0.00 | 0.00 | 47 | 1019.3 |
| 20260507171527 | 19 | 55 | 27.4 | 32.2 | 0.00 | 0.00 | 0.00 | 46 | 1019.2 |
| 20260507170528 | 18 | 52 | 11.3 | 29.0 | 0.00 | 0.00 | 0.00 | 50 | 1019.4 |
| 20260507170027 | 18 | 61 | 22.5 | 29.0 | 0.00 | 0.00 | 0.00 | 50 | 1019.4 |
| 20260507165528 | 18 | 60 | 8.0 | 25.7 | 0.00 | 0.00 | 0.00 | 49 | 1019.5 |
| 20260507164527 | 18 | 55 | 19.3 | 25.7 | 0.00 | 0.00 | 0.00 | 49 | 1019.6 |
| 20260507164027 | 18 | 1 | 14.5 | 25.7 | 0.00 | 0.00 | 0.00 | 48 | 1019.6 |
| 20260507163527 | 17 | 26 | 19.3 | 25.7 | 0.00 | 0.00 | 0.00 | 51 | 1019.7 |
| 20260507163028 | 17 | 33 | 19.3 | 25.7 | 0.00 | 0.00 | 0.00 | 50 | 1019.7 |
| 20260507161527 | 17 | 42 | 8.0 | 25.7 | 0.00 | 0.00 | 0.00 | 54 | 1019.8 |
| 20260507160027 | 17 | 3 | 14.5 | 22.5 | 0.00 | 0.00 | 0.00 | 55 | 1019.9 |
| 20260507155527 | 17 | 82 | 11.3 | 17.7 | 0.00 | 0.00 | 0.00 | 55 | 1019.9 |
| 20260507155027 | 17 | 45 | 12.9 | 17.7 | 0.00 | 0.00 | 0.00 | 57 | 1019.9 |
| 20260507154527 | 16 | 41 | 17.7 | 19.3 | 0.00 | 0.00 | 0.00 | 59 | 1020.0 |
| 20260507154028 | 16 | 86 | 11.3 | 22.5 | 0.00 | 0.00 | 0.00 | 58 | 1020.1 |
| 20260507153528 | 16 | 53 | 19.3 | 22.5 | 0.00 | 0.00 | 0.00 | 57 | 1020.1 |
| 20260507153028 | 16 | 44 | 17.7 | 17.7 | 0.00 | 0.00 | 0.00 | 56 | 1020.1 |
| 20260507152527 | 16 | 44 | 9.7 | 20.9 | 0.00 | 0.00 | 0.00 | 59 | 1020.3 |
| 20260507151027 | 16 | 60 | 17.7 | 24.1 | 0.00 | 0.00 | 0.00 | 61 | 1020.1 |
| 20260507150528 | 16 | 37 | 20.9 | 20.9 | 0.00 | 0.00 | 0.00 | 60 | 1020.1 |
| 20260507150027 | 15 | 55 | 17.7 | 20.9 | 0.00 | 0.00 | 0.00 | 67 | 1020.3 |
| 20260507145528 | 15 | 62 | 19.3 | 19.3 | 0.00 | 0.00 | 0.00 | 68 | 1020.4 |
| 20260507145029 | 15 | 71 | 9.7 | 14.5 | 0.00 | 0.00 | 0.00 | 69 | 1020.6 |
| 20260507144527 | 14 | 20 | 12.9 | 14.5 | 0.00 | 0.00 | 0.00 | 71 | 1020.5 |
| 20260507144027 | 14 | 42 | 9.7 | 14.5 | 0.00 | 0.00 | 0.00 | 72 | 1020.6 |
| 20260507143528 | 14 | 26 | 6.4 | 14.5 | 0.00 | 0.00 | 0.00 | 72 | 1020.7 |
| 20260507143028 | 14 | 30 | 12.9 | 14.5 | 0.00 | 0.00 | 0.00 | 72 | 1020.6 |
| 20260507142527 | 13 | 21 | 12.9 | 14.5 | 0.00 | 0.00 | 0.00 | 73 | 1020.7 |
| 20260507141527 | 13 | 15 | 4.8 | 12.9 | 0.00 | 0.00 | 0.00 | 74 | 1020.9 |
| 20260507141027 | 13 | 44 | 8.0 | 14.5 | 0.00 | 0.00 | 0.00 | 75 | 1020.9 |
| 20260507140529 | 13 | 19 | 11.3 | 14.5 | 0.00 | 0.00 | 0.00 | 75 | 1020.9 |
| 20260507140027 | 13 | 356 | 12.9 | 14.5 | 0.00 | 0.00 | 0.00 | 74 | 1020.8 |
| 20260507135527 | 13 | 19 | 11.3 | 14.5 | 0.00 | 0.00 | 0.00 | 77 | 1020.9 |
| 20260507135027 | 12 | 11 | 11.3 | 12.9 | 0.00 | 0.00 | 0.00 | 77 | 1020.9 |
| 20260507134529 | 12 | 2 | 11.3 | 14.5 | 0.00 | 0.00 | 0.00 | 77 | 1020.9 |
| 20260507134027 | 12 | 15 | 9.7 | 14.5 | 0.00 | 0.00 | 0.00 | 79 | 1020.9 |
| 20260507133527 | 12 | 16 | 11.3 | 14.5 | 0.00 | 0.00 | 0.00 | 77 | 1020.8 |
| 20260507133027 | 12 | 4 | 12.9 | 14.5 | 0.00 | 0.00 | 0.00 | 78 | 1020.8 |
| 20260507132027 | 12 | 9 | 14.5 | 14.5 | 0.00 | 0.00 | 0.00 | 81 | 1020.8 |
| 20260507131527 | 12 | 354 | 12.9 | 12.9 | 0.00 | 0.00 | 0.00 | 80 | 1020.7 |
| 20260507131027 | 11 | 359 | 11.3 | 12.9 | 0.00 | 0.00 | 0.00 | 82 | 1020.7 |
| 20260507130527 | 11 | 0 | 6.4 | 12.9 | 0.00 | 0.00 | 0.00 | 82 | 1020.8 |
| 20260507130027 | 11 | 352 | 11.3 | 12.9 | 0.00 | 0.00 | 0.00 | 83 | 1020.8 |
| 20260507125527 | 11 | 345 | 8.0 | 11.3 | 0.00 | 0.00 | 0.00 | 84 | 1020.7 |